EN

Hourly Weather Labuti

Today, 5 August, Thursday

Time Temperature Precipitation Wind Pressure Humidity
00:00 +14°C° 2 mm 2 mps 749 mmHg 97%
01:00 +13°C° 2 mm 3 mps 749 mmHg 98%
02:00 +13°C° 0 mm 3 mps 749 mmHg 98%
03:00 +13°C° 1.4 mm 3 mps 748 mmHg 98%
04:00 +13°C° 1.4 mm 3 mps 748 mmHg 98%
05:00 +13°C° 1.4 mm 3 mps 748 mmHg 97%
06:00 +14°C° 0.2 mm 3 mps 748 mmHg 97%
07:00 +14°C° 0.2 mm 3 mps 748 mmHg 97%
08:00 +15°C° 0.2 mm 2 mps 748 mmHg 97%
09:00 +14°C° 0.1 mm 3 mps 748 mmHg 95%
10:00 +14°C° 0.1 mm 3 mps 748 mmHg 93%
11:00 +15°C° 0.1 mm 4 mps 748 mmHg 92%
12:00 +15°C° 0 mm 4 mps 748 mmHg 89%
13:00 +15°C° 0 mm 4 mps 748 mmHg 87%
14:00 +17°C° 0 mm 4 mps 748 mmHg 85%
15:00 +17°C° 0 mm 4 mps 748 mmHg 84%
16:00 +15°C° 0 mm 4 mps 748 mmHg 83%
17:00 +15°C° 0 mm 4 mps 748 mmHg 82%
18:00 +15°C° 0 mm 4 mps 748 mmHg 84%
19:00 +14°C° 0 mm 4 mps 748 mmHg 86%
20:00 +13°C° 0 mm 4 mps 748 mmHg 88%
21:00 +13°C° 0 mm 4 mps 748 mmHg 89%
22:00 +13°C° 0 mm 3 mps 747 mmHg 90%
23:00 +13°C° 0 mm 3 mps 747 mmHg 91%

Tomorrow, 6 August, Friday

Time Temperature Precipitation Wind Pressure Humidity
00:00 +13°C° 0 mm 4 mps 747 mmHg 91%
01:00 +12°C° 0 mm 4 mps 747 mmHg 91%
02:00 +12°C° 0 mm 4 mps 746 mmHg 92%
03:00 +12°C° 0 mm 5 mps 746 mmHg 91%
04:00 +12°C° 0 mm 5 mps 745 mmHg 91%
05:00 +12°C° 0 mm 5 mps 745 mmHg 91%
06:00 +11°C° 0.8 mm 6 mps 744 mmHg 92%
07:00 +11°C° 0.8 mm 6 mps 744 mmHg 94%
08:00 +11°C° 0.8 mm 6 mps 743 mmHg 95%
09:00 +12°C° 2.7 mm 7 mps 743 mmHg 96%
10:00 +12°C° 2.7 mm 7 mps 743 mmHg 96%
11:00 +12°C° 2.7 mm 7 mps 742 mmHg 97%
12:00 +14°C° 0.6 mm 7 mps 742 mmHg 97%
13:00 +14°C° 0.6 mm 6 mps 741 mmHg 97%
14:00 +15°C° 0.6 mm 6 mps 741 mmHg 97%
15:00 +15°C° 0.5 mm 6 mps 740 mmHg 97%
16:00 +15°C° 0.5 mm 6 mps 740 mmHg 97%
17:00 +16°C° 0.5 mm 6 mps 740 mmHg 97%
18:00 +16°C° 1 mm 6 mps 739 mmHg 97%
19:00 +16°C° 1 mm 5 mps 739 mmHg 98%
20:00 +17°C° 1 mm 5 mps 739 mmHg 98%
21:00 +17°C° 0.1 mm 4 mps 739 mmHg 97%
22:00 +17°C° 0.1 mm 4 mps 739 mmHg 97%
23:00 +17°C° 0.1 mm 3 mps 739 mmHg 97%

Day after tomorrow, 7 August, Saturday

Time Temperature Precipitation Wind Pressure Humidity
00:00 +17°C° 0 mm 3 mps 739 mmHg 96%
01:00 +15°C° 0 mm 4 mps 739 mmHg 95%
02:00 +14°C° 0 mm 4 mps 739 mmHg 94%
03:00 +14°C° 0 mm 4 mps 739 mmHg 94%
04:00 +13°C° 0 mm 4 mps 740 mmHg 94%
05:00 +13°C° 0 mm 4 mps 740 mmHg 93%
06:00 +13°C° 0 mm 5 mps 740 mmHg 93%
07:00 +13°C° 0 mm 5 mps 740 mmHg 93%
08:00 +13°C° 0 mm 5 mps 740 mmHg 93%
09:00 +14°C° 0 mm 5 mps 740 mmHg 93%
10:00 +14°C° 0 mm 5 mps 741 mmHg 92%
11:00 +14°C° 0 mm 5 mps 741 mmHg 92%
12:00 +14°C° 0 mm 4 mps 741 mmHg 92%
13:00 +14°C° 0 mm 4 mps 742 mmHg 92%
14:00 +14°C° 0 mm 4 mps 742 mmHg 92%
15:00 +14°C° 0 mm 4 mps 742 mmHg 93%
16:00 +14°C° 0 mm 4 mps 742 mmHg 93%
17:00 +14°C° 0 mm 4 mps 743 mmHg 94%
18:00 +15°C° 0.2 mm 4 mps 743 mmHg 95%
19:00 +15°C° 0.2 mm 5 mps 744 mmHg 95%
20:00 +15°C° 0.2 mm 5 mps 744 mmHg 96%
21:00 +15°C° 0 mm 4 mps 744 mmHg 95%
22:00 +15°C° 0 mm 4 mps 745 mmHg 95%
23:00 +14°C° 0 mm 4 mps 745 mmHg 95%

8 August, Sunday

Time Temperature Precipitation Wind Pressure Humidity
00:00 +14°C° 0 mm 4 mps 746 mmHg 95%
01:00 +13°C° 0 mm 4 mps 746 mmHg 95%
02:00 +12°C° 0 mm 3 mps 746 mmHg 96%
03:00 +12°C° 0 mm 3 mps 747 mmHg 95%
04:00 +11°C° 0 mm 3 mps 747 mmHg 95%
05:00 +11°C° 0 mm 3 mps 748 mmHg 95%
06:00 +14°C° 0 mm 2 mps 748 mmHg 90%
07:00 +16°C° 0 mm 2 mps 748 mmHg 85%
08:00 +17°C° 0 mm 2 mps 748 mmHg 80%
09:00 +19°C° 0 mm 2 mps 748 mmHg 75%
10:00 +21°C° 0 mm 3 mps 748 mmHg 69%
11:00 +24°C° 0 mm 3 mps 749 mmHg 63%
12:00 +25°C° 0 mm 3 mps 749 mmHg 60%
13:00 +26°C° 0 mm 3 mps 749 mmHg 57%
14:00 +27°C° 0 mm 3 mps 749 mmHg 53%
15:00 +26°C° 0 mm 3 mps 748 mmHg 57%
16:00 +26°C° 0 mm 3 mps 748 mmHg 62%
17:00 +25°C° 0 mm 3 mps 748 mmHg 66%
18:00 +24°C° 0 mm 3 mps 748 mmHg 70%
19:00 +22°C° 0 mm 3 mps 748 mmHg 74%
20:00 +21°C° 0 mm 3 mps 748 mmHg 78%
21:00 +21°C° 0 mm 4 mps 748 mmHg 76%
22:00 +21°C° 0 mm 4 mps 748 mmHg 75%
23:00 +21°C° 0 mm 5 mps 748 mmHg 73%

9 August, Monday

Time Temperature Precipitation Wind Pressure Humidity
00:00 +20°C° 0.2 mm 4 mps 748 mmHg 76%
01:00 +20°C° 0.2 mm 4 mps 748 mmHg 80%
02:00 +19°C° 0.2 mm 3 mps 748 mmHg 84%
03:00 +18°C° 0 mm 3 mps 748 mmHg 88%
04:00 +18°C° 0 mm 2 mps 748 mmHg 92%
05:00 +17°C° 0 mm 2 mps 748 mmHg 95%
06:00 +18°C° 0 mm 2 mps 748 mmHg 92%
07:00 +19°C° 0 mm 2 mps 749 mmHg 89%
08:00 +20°C° 0 mm 2 mps 749 mmHg 85%
09:00 +21°C° 0.1 mm 2 mps 749 mmHg 82%
10:00 +23°C° 0.1 mm 2 mps 749 mmHg 78%
11:00 +24°C° 0.1 mm 3 mps 749 mmHg 75%
12:00 +23°C° 0.6 mm 2 mps 749 mmHg 80%
13:00 +21°C° 0.6 mm 2 mps 749 mmHg 85%
14:00 +20°C° 0.6 mm 2 mps 750 mmHg 91%
15:00 +20°C° 0.4 mm 2 mps 750 mmHg 91%
16:00 +20°C° 0.4 mm 3 mps 750 mmHg 91%
17:00 +19°C° 0.4 mm 3 mps 750 mmHg 92%
18:00 +19°C° 0 mm 3 mps 750 mmHg 93%
19:00 +18°C° 0 mm 3 mps 751 mmHg 94%
20:00 +17°C° 0 mm 3 mps 751 mmHg 96%
21:00 +16°C° 0 mm 3 mps 751 mmHg 96%
22:00 +14°C° 0 mm 3 mps 751 mmHg 96%
23:00 +14°C° 0 mm 2 mps 752 mmHg 97%

10 August, Tuesday

Time Temperature Precipitation Wind Pressure Humidity
00:00 +14°C° 0 mm 2 mps 752 mmHg 96%
01:00 +14°C° 0 mm 2 mps 752 mmHg 96%
02:00 +13°C° 0 mm 1 mps 752 mmHg 96%
03:00 +13°C° 0 mm 1 mps 752 mmHg 96%
04:00 +13°C° 0 mm 1 mps 752 mmHg 95%
05:00 +13°C° 0 mm 1 mps 752 mmHg 95%
06:00 +15°C° 0 mm 2 mps 752 mmHg 92%
07:00 +16°C° 0 mm 2 mps 753 mmHg 89%
08:00 +17°C° 0 mm 2 mps 753 mmHg 86%
09:00 +18°C° 0 mm 2 mps 753 mmHg 79%
10:00 +19°C° 0 mm 2 mps 753 mmHg 72%
11:00 +21°C° 0 mm 2 mps 753 mmHg 66%
12:00 +21°C° 0 mm 2 mps 753 mmHg 62%
13:00 +23°C° 0 mm 2 mps 753 mmHg 58%
14:00 +24°C° 0 mm 2 mps 753 mmHg 54%
15:00 +24°C° 0 mm 1 mps 752 mmHg 54%
16:00 +24°C° 0 mm 1 mps 752 mmHg 55%
17:00 +24°C° 0 mm 1 mps 752 mmHg 55%
18:00 +22°C° 0 mm 1 mps 752 mmHg 61%
19:00 +21°C° 0 mm 1 mps 752 mmHg 67%
20:00 +17°C° 0 mm 0 mps 752 mmHg 72%
21:00 +18°C° 0 mm 1 mps 752 mmHg 75%
22:00 +18°C° 0 mm 1 mps 752 mmHg 78%
23:00 +16°C° 0 mm 1 mps 753 mmHg 81%
Show more